sat.trackr.live / text

‹ back to catalog

TURKSAT 3A

NORAD 33056 · 2008-030B

PAYLOAD ACTIVE UNKNOWN

§ Identity

Operator
Country
TURK
Launch date
2008-06-12
Launch site
FRGUI
Launch vehicle
Mass (kg)
RCS (m²)
24.79

Purposes: comms

External: N2YO · Heavens-Above · Gunter

§ Orbital elements

Epoch: 2026-09-14T22:33:23.399424Z

Period
1,436.09 min
Inclination
0.0322°
Eccentricity
0.0004375
Mean motion
1.00271977 rev/d
Perigee alt
35,768.1 km
Apogee alt
35,805.0 km
Semi-major
42,164.7 km
B*
0.0000e+0
RAAN
84.9182°
Arg perigee
74.0750°
Mean anomaly
215.2603°
Rev number
5,325

§ Raw data

TURKSAT 3A1 33056U 08030B   26257.93985416  .00000139  00000+0  00000+0 0  99962 33056   0.0322  84.9182 0004375  74.0750 215.2603  1.00271977 53258

JSON: /api/v1/satellites/33056 · /tle

For live sub-satellite position, see the globe view (requires WebGL).

§ Visibility from observer

Set your observer location to see the next 7 days of passes ≥ 10°. The values pass through the URL so the page stays shareable.

No JS? Fill the form by hand. The geolocation button needs JavaScript.